DW9672 Weather Reports


Display with metric or nautical units.
time (UTC)temp
F
wind
direction
speed
MPH
gust
MPH
rain 1hr
in
rain 24hr
in
rain mn
in
humidity
%
barometer
mb
20240223013059 47 40 0.0 0.0 0.00 0.31 0.01 81 1008.2
20240223011555 48 40 0.0 0.0 0.00 0.31 0.01 79 1008.2
20240223010033 49 40 0.0 0.0 0.00 0.31 0.01 77 1008.2
20240223004533 50 40 0.0 0.0 0.00 0.31 0.01 75 1008.1
20240223003016 51 40 0.0 0.0 0.00 0.31 0.01 72 1008.1
20240223001524 53 40 0.0 0.0 0.00 0.31 0.01 68 1007.9
20240223000057 54 40 0.0 0.0 0.00 0.31 0.01 63 1007.7
20240222234557 56 40 0.0 0.0 0.00 0.31 0.01 55 1007.6
20240222233039 58 40 0.0 1.0 0.00 0.31 0.01 50 1007.5
20240222231539 58 40 0.0 1.0 0.00 0.31 0.01 46 1007.5
20240222230025 59 17 1.0 4.0 0.00 0.31 0.01 44 1007.3
20240222224520 60 24 1.0 8.0 0.00 0.31 0.01 43 1007.1
20240222223002 61 31 2.0 6.0 0.00 0.31 0.01 41 1007.0
20240222221502 62 19 0.0 5.0 0.00 0.31 0.01 40 1006.9
20240222220043 62 26 0.0 5.0 0.00 0.31 0.01 42 1006.9
20240222214548 62 26 0.0 1.0 0.00 0.31 0.01 44 1006.8
20240222213020 60 38 0.0 4.0 0.00 0.31 0.01 46 1006.7
20240222211518 61 35 2.0 7.0 0.00 0.31 0.01 49 1006.7
20240222210059 60 38 0.0 5.0 0.00 0.31 0.01 52 1006.7
20240222204558 60 32 2.0 7.0 0.00 0.31 0.01 51 1006.8
20240222203039 60 5 0.0 5.0 0.00 0.31 0.01 54 1006.9
20240222201536 59 49 4.0 7.0 0.00 0.31 0.01 56 1006.6
20240222200016 59 355 0.0 5.0 0.00 0.31 0.01 61 1006.9
20240222194513 58 35 1.0 7.0 0.00 0.31 0.01 67 1007.0
20240222193115 58 36 2.0 7.0 0.00 0.31 0.01 71 1007.1
20240222191551 57 26 3.0 8.0 0.00 0.31 0.01 71 1007.2
20240222190033 57 26 3.0 7.0 0.00 0.31 0.01 74 1007.2
20240222184531 57 342 2.0 7.0 0.00 0.31 0.01 76 1007.3
20240222183011 56 17 4.0 8.0 0.00 0.31 0.01 79 1007.4
20240222181513 56 26 4.0 7.0 0.00 0.31 0.01 81 1007.6
20240222180049 56 43 3.0 7.0 0.00 0.31 0.01 83 1007.7
20240222174550 56 5 4.0 7.0 0.00 0.31 0.01 83 1007.8
20240222173037 55 33 1.0 5.0 0.00 0.31 0.01 84 1008.0
20240222171523 54 28 0.0 0.0 0.00 0.31 0.01 86 1008.2
20240222170001 53 52 0.0 0.0 0.00 0.31 0.01 87 1008.3
20240222164558 52 36 0.0 0.0 0.00 0.31 0.01 88 1008.5
20240222163036 50 35 0.0 0.0 0.00 0.31 0.01 89 1008.7
20240222161533 49 34 0.0 0.0 0.00 0.31 0.01 90 1008.6
20240222160014 48 29 0.0 0.0 0.00 0.31 0.01 91 1008.7
20240222154508 47 28 0.0 0.0 0.00 0.31 0.01 92 1008.7
20240222153052 47 34 0.0 0.0 0.00 0.31 0.01 92 1008.7
20240222151553 46 34 0.0 0.0 0.00 0.31 0.01 93 1008.8
20240222150030 46 36 0.0 0.0 0.00 0.31 0.01 94 1008.7
20240222144529 46 73 0.0 0.0 0.00 0.31 0.01 96 1008.5
20240222143009 46 36 0.0 0.0 0.00 0.31 0.01 97 1008.5
20240222141507 46 30 0.0 0.0 0.00 0.31 0.01 97 1008.6
20240222140049 46 28 0.0 0.0 0.00 0.31 0.01 97 1008.7
20240222134547 47 86 0.0 0.0 0.00 0.31 0.01 97 1008.7
20240222133050 47 22 0.0 0.0 0.01 0.31 0.01 97 1008.3
20240222131534 46 21 0.0 0.0 0.01 0.31 0.01 97 1007.7
20240222130008 46 17 0.0 0.0 0.01 0.31 0.01 97 1007.8
20240222124506 46 17 0.0 0.0 0.01 0.31 0.01 97 1008.0
20240222123048 46 17 0.0 4.0 0.00 0.30 0.00 97 1008.2
20240222121548 47 37 0.0 0.0 0.00 0.30 0.00 97 1008.1
20240222120026 46 37 0.0 0.0 0.00 0.30 0.00 97 1008.5
20240222114523 46 37 0.0 0.0 0.00 0.30 0.30 96 1008.4
20240222113006 47 37 0.0 0.0 0.00 0.30 0.30 96 1008.1
20240222111506 47 37 0.0 0.0 0.00 0.30 0.30 96 1008.2
20240222110111 48 37 0.0 0.0 0.01 0.30 0.30 96 1008.0
20240222104548 48 37 0.0 3.0 0.04 0.30 0.30 96 1007.7
20240222103047 49 84 0.0 1.0 0.05 0.30 0.30 96 1007.7
20240222101529 49 107 0.0 1.0 0.05 0.30 0.30 96 1008.0
20240222100028 49 31 0.0 4.0 0.05 0.28 0.28 95 1008.0
20240222094511 49 336 0.0 1.0 0.03 0.26 0.26 95 1009.1
20240222093013 50 40 3.0 9.0 0.10 0.25 0.25 94 1007.8
20240222091550 49 53 1.0 4.0 0.25 0.25 0.25 94 1007.7
20240222090054 49 68 2.0 7.0 0.24 0.24 0.24 93 1007.9
20240222084542 49 71 1.0 5.0 0.23 0.23 0.23 92 1008.8
20240222083032 49 116 0.0 5.0 0.15 0.15 0.15 91 1009.4
20240222081508 48 59 5.0 11.0 0.00 0.00 0.00 87 1010.1
20240222080013 49 51 0.0 5.0 0.00 0.00 0.00 87 1009.0
20240222074556 49 42 3.0 8.0 0.00 0.00 0.00 86 1009.1
20240222073052 49 54 4.0 8.0 0.00 0.00 0.00 86 1009.3
20240222071532 49 65 0.0 3.0 0.00 0.00 0.00 85 1009.3
20240222070028 49 65 0.0 3.0 0.00 0.00 0.00 84 1009.4
20240222064517 49 47 3.0 4.0 0.00 0.00 0.00 83 1009.7
20240222063013 49 47 1.0 5.0 0.00 0.00 0.00 82 1010.0
20240222061511 49 71 3.0 7.0 0.00 0.00 0.00 81 1010.1
20240222060010 50 77 2.0 8.0 0.00 0.00 0.00 81 1010.3
20240222054509 50 68 0.0 6.0 0.00 0.00 0.00 80 1010.6
20240222053007 51 38 1.0 6.0 0.00 0.00 0.00 80 1010.7
20240222051505 50 42 3.0 5.0 0.00 0.00 0.00 83 1010.9
20240222050006 50 279 0.0 2.0 0.00 0.00 0.00 86 1010.8
20240222044547 49 279 0.0 0.0 0.00 0.00 0.00 87 1010.9
20240222043047 49 279 0.0 0.0 0.00 0.00 0.00 88 1011.1
20240222041527 48 279 1.0 3.0 0.00 0.00 0.00 88 1011.1
20240222040027 48 213 0.0 0.0 0.00 0.00 0.00 89 1011.2
20240222034509 48 213 0.0 0.0 0.00 0.00 0.00 88 1011.3
20240222033009 49 213 0.0 0.0 0.00 0.00 0.00 88 1011.4
20240222031549 48 213 0.0 0.0 0.00 0.00 0.00 87 1011.7
20240222030048 49 213 0.0 0.0 0.00 0.00 0.00 88 1011.7
20240222024532 49 213 0.0 0.0 0.00 0.00 0.00 87 1011.8
20240222023033 49 213 0.0 0.0 0.00 0.00 0.00 86 1011.7
20240222021519 49 213 0.0 0.0 0.00 0.00 0.00 86 1011.9
20240222020012 50 213 0.0 0.0 0.00 0.00 0.00 85 1011.7
20240222014554 50 213 0.0 0.0 0.00 0.00 0.00 83 1011.8